Location: Coffee Creek Observatory
(38.8077°N, 94.7179°W)
Time: 04:55:28
(UTC-06:00)

Amateur Radio Satellites - All Passes

Search period start: 30 January 2015 04:25
Search period end: 31 January 2015 04:25
Location: Coffee Creek Observatory, 38.8077°N, 94.7179°W

Satellite Date Start Highest point End Downlink Frequencies (MHz)
Time Altitude Azimuth
CUSAT 1 30 Jan 04:28:20 04:36:33 85° 279° (W) 04:45:01 437.405
RS-15 30 Jan 04:49:38 05:00:26 71° 116° (ESE) 05:11:21 29.354- 29.394
ISS 30 Jan 05:09:31 05:12:30 32° 226° (SW) 05:15:28 145.825
YUBILEINY 30 Jan 05:16:27 05:22:05 19° 62° (ENE) 05:28:11 435.215
Cubesat XI-IV 30 Jan 05:18:35 05:20:35 12° 88° (E) 05:22:56 437.490
PCSat 30 Jan 05:18:50 05:23:45 34° 307° (NW) 05:28:38 145.827
PRISM 30 Jan 05:21:44 05:25:27 34° 72° (ENE) 05:29:13 437.425
JAS-2 30 Jan 05:23:18 05:29:04 78° 285° (WNW) 05:35:33 435.910
HORYU 2 30 Jan 05:23:40 05:24:38 10° 297° (WNW) 05:25:21 437.375
MOZHAYETS 4 30 Jan 05:24:16 05:27:52 22° 267° (W) 05:31:22
CUTE-I 30 Jan 05:36:56 05:40:37 19° 91° (E) 05:44:30 437.470
CUBESAT XI-V 30 Jan 05:41:12 05:45:29 40° 72° (ENE) 05:49:49 437.345
DANDE 30 Jan 05:48:26 05:55:50 33° 292° (WNW) 06:03:18 436.750
STRAND 1 30 Jan 06:09:29 06:14:28 61° 74° (ENE) 06:19:32 437.568
AO-7 30 Jan 06:12:53 06:19:58 31° 300° (WNW) 06:26:50 29.400- 29.500
CUSAT 1 30 Jan 06:15:00 06:20:52 19° 299° (WNW) 06:26:17 437.405
Cubesat XI-IV 30 Jan 06:55:59 07:01:22 76° 286° (WNW) 07:06:45 437.490
PRISM 30 Jan 06:58:22 07:01:09 17° 267° (W) 07:03:47 437.425
RS-15 30 Jan 07:03:56 07:13:48 36° 321° (NW) 07:23:38 29.354- 29.394
YUBILEINY 30 Jan 07:11:26 07:20:15 86° 264° (W) 07:29:05 435.215
JAS-2 30 Jan 07:12:06 07:13:37 11° 298° (WNW) 07:14:46 435.910
CUTE-I 30 Jan 07:15:51 07:21:03 50° 288° (WNW) 07:26:13 437.470
CUBESAT XI-V 30 Jan 07:19:55 07:23:09 18° 269° (W) 07:26:15 437.345
VERMONT LUNAR 30 Jan 07:51:02 07:54:03 28° 152° (SSE) 07:57:07 437.305
STRAND 1 30 Jan 07:51:18 07:54:11 15° 270° (W) 07:56:49 437.568
CANX-2 30 Jan 08:21:06 08:24:16 21° 93° (E) 08:27:31 2200.000
AAUSAT CUBESAT 2 30 Jan 08:29:58 08:32:07 14° 90° (E) 08:34:28 437.432
CINEMA 3 30 Jan 08:37:15 08:38:44 12° 87° (E) 08:40:30 145.822/145.860
CUTE 1.7 + AOD 2 30 Jan 08:44:34 08:48:26 35° 97° (E) 08:52:20 437.475
GOMX 1 30 Jan 08:48:25 08:53:34 44° 97° (E) 08:58:28 467.674
Oscar 11 30 Jan 08:51:32 08:53:08 12° 89° (E) 08:54:58 145.826/435.025
UNISAT 6 30 Jan 08:53:22 08:55:32 14° 65° (ENE) 08:57:55 437.425
HO-68 30 Jan 08:55:22 09:02:22 55° 101° (E) 09:09:22 435.675
PHONESAT 2.4 30 Jan 08:55:43 08:59:10 45° 156° (SSE) 09:02:39 2401.200-2431.200
DOVE 4 30 Jan 08:55:50 09:00:35 36° 95° (E) 09:05:07 437.250
BRITE-PL 30 Jan 08:58:10 09:03:53 79° 101° (ESE) 09:09:17 437.365/2234.400
YUBILEINY 30 Jan 09:11:06 09:15:57 15° 281° (W) 09:20:13 435.215
SEEDS 30 Jan 09:13:29 09:17:40 67° 101° (E) 09:21:49 437.485
SO-50 30 Jan 09:22:54 09:26:29 24° 112° (ESE) 09:30:16 436.795
RS-15 30 Jan 09:24:11 09:30:52 17° 354° (N) 09:37:36 29.354- 29.394
UKube-1 30 Jan 09:26:35 09:29:20 17° 92° (E) 09:32:14 .
ANTELSAT 30 Jan 09:27:20 09:31:23 30° 70° (ENE) 09:35:29 437.575/2403.000
VERMONT LUNAR 30 Jan 09:28:29 09:31:58 85° 347° (NNW) 09:35:29 437.305
NANOSAT C BR1 30 Jan 09:32:53 09:35:47 19° 68° (ENE) 09:38:49 145.865
TIGRISAT 30 Jan 09:34:13 09:38:26 34° 71° (ENE) 09:42:42 435.000
COMPASS 1 30 Jan 09:38:29 09:42:39 74° 284° (WNW) 09:46:47 437.405
CUBEBUG 2 30 Jan 09:39:59 09:44:02 31° 95° (E) 09:47:59 437.445
HUMSAT D 30 Jan 09:40:10 09:40:20 10° 88° (E) 09:40:46 437.325/437.525
ZACube-1 30 Jan 09:43:04 09:46:32 23° 93° (E) 09:50:01 437.345
QB50P2 30 Jan 09:47:06 09:50:41 27° 70° (ENE) 09:54:21 145.880/145.840
DX 1 30 Jan 09:47:52 09:51:45 30° 96° (E) 09:55:39 434.975-435.025
DELFI C3 30 Jan 09:52:53 09:56:50 50° 99° (E) 10:00:46 145.870
FUNcube-1 30 Jan 09:54:21 09:58:13 30° 95° (E) 10:02:02 145.935
QB50P1 30 Jan 09:55:46 09:59:34 33° 71° (ENE) 10:03:27 145.935-145.965
CANX-2 30 Jan 09:56:34 10:00:17 29° 289° (WNW) 10:03:54 2200.000
BUGSAT 1 30 Jan 10:01:55 10:05:25 28° 71° (ENE) 10:09:02 437.445
AAUSAT CUBESAT 2 30 Jan 10:04:08 10:08:04 41° 287° (WNW) 10:11:57 437.432
POLYITAN 1 30 Jan 10:10:56 10:15:05 50° 74° (ENE) 10:19:18 437.675
CINEMA 3 30 Jan 10:11:47 10:16:36 65° 285° (WNW) 10:21:09 145.822/145.860
UWE-3 30 Jan 10:17:21 10:21:50 71° 101° (E) 10:26:09 435.000/436.395/437.385
AISAT 30 Jan 10:17:53 10:21:35 25° 95° (E) 10:25:20 437.250
CUTE 1.7 + AOD 2 30 Jan 10:21:13 10:24:10 18° 292° (WNW) 10:26:58 437.475
Oscar 11 30 Jan 10:25:31 10:29:44 53° 286° (WNW) 10:33:54 145.826/435.025
ESTCUBE 1 30 Jan 10:25:41 10:27:37 13° 89° (E) 10:29:48 437.505/2401.250
GOMX 1 30 Jan 10:27:10 10:31:23 23° 294° (WNW) 10:35:19 467.674
UNISAT 6 30 Jan 10:27:11 10:31:52 64° 259° (W) 10:36:33 437.425
AIST 1 30 Jan 10:29:17 10:32:05 18° 88° (E) 10:35:02
POPSAT HIP 1 30 Jan 10:30:12 10:34:29 83° 77° (ENE) 10:38:49 437.405
DUCHIFAT 1 30 Jan 10:32:11 10:36:27 86° 77° (ENE) 10:40:46 145.980
DOVE 4 30 Jan 10:33:55 10:38:10 25° 292° (WNW) 10:42:07 437.250
PHONESAT 2.4 30 Jan 10:34:04 10:37:41 71° 352° (N) 10:41:19 2401.200-2431.200
BEESAT 2 30 Jan 10:36:26 10:40:12 32° 51° (NE) 10:43:57 435.950
50 SAT 30 Jan 10:38:21 10:42:06 37° 97° (E) 10:45:51 437.505
BRITE-PL 30 Jan 10:38:34 10:41:42 15° 298° (WNW) 10:44:30 437.365/2234.400
AIST 2 30 Jan 10:38:51 10:41:36 17° 44° (NE) 10:44:26 435.215
HO-68 30 Jan 10:43:47 10:49:45 29° 297° (WNW) 10:55:33 435.675
VELOX 1 30 Jan 10:45:02 10:49:24 48° 99° (E) 10:53:46 145.980
BEESAT 3 30 Jan 10:49:13 10:53:15 48° 55° (NE) 10:57:15 437.485
CUBEBUG 1 30 Jan 10:50:30 10:53:58 23° 94° (E) 10:57:31 437.445
SEEDS 30 Jan 10:52:31 10:53:01 10° 295° (WNW) 10:53:17 437.485
UKube-1 30 Jan 11:01:38 11:05:44 40° 288° (WNW) 11:09:47 .
SO-50 30 Jan 11:02:36 11:06:52 36° 309° (NW) 11:11:14 436.795
ANTELSAT 30 Jan 11:04:11 11:08:11 26° 266° (W) 11:12:05 437.575/2403.000
VERMONT LUNAR 30 Jan 11:06:44 11:10:13 65° 4° (N) 11:13:43 437.305
NANOSAT C BR1 30 Jan 11:07:29 11:11:26 36° 263° (W) 11:15:24 145.865
TIGRISAT 30 Jan 11:11:30 11:15:16 23° 267° (W) 11:18:56 435.000
HUMSAT D 30 Jan 11:12:28 11:16:39 60° 285° (WNW) 11:20:45 437.325/437.525
CUBEBUG 2 30 Jan 11:17:00 11:20:36 23° 292° (WNW) 11:24:00 437.445
GONETS M04 30 Jan 11:18:35 11:25:21 26° 66° (ENE) 11:32:24
ZACube-1 30 Jan 11:19:07 11:22:57 29° 290° (WNW) 11:26:38 437.345
QB50P2 30 Jan 11:23:03 11:26:35 24° 266° (W) 11:30:04 145.880/145.840
DX 1 30 Jan 11:24:23 11:27:52 23° 292° (WNW) 11:31:16 434.975-435.025
DELFI C3 30 Jan 11:29:58 11:31:42 12° 294° (WNW) 11:33:14 145.870
FUNcube-1 30 Jan 11:30:59 11:34:26 22° 291° (WNW) 11:37:43 145.935
QB50P1 30 Jan 11:32:24 11:35:35 20° 267° (W) 11:38:40 145.935-145.965
BUGSAT 1 30 Jan 11:37:48 11:40:59 21° 267° (W) 11:44:06 437.445
RS-15 30 Jan 11:40:00 11:48:48 26° 29° (NNE) 11:58:11 29.354- 29.394
POLYITAN 1 30 Jan 11:49:15 11:51:24 13° 270° (W) 11:53:20 437.675
AISAT 30 Jan 11:54:18 11:58:12 29° 290° (WNW) 12:02:02 437.250
UWE-3 30 Jan 11:56:34 11:57:49 11° 296° (WNW) 11:58:48 435.000/436.395/437.385
ESTCUBE 1 30 Jan 12:00:29 12:04:56 55° 286° (WNW) 12:09:22 437.505/2401.250
AIST 1 30 Jan 12:05:42 12:09:33 32° 284° (WNW) 12:13:23
SPROUT 30 Jan 12:06:44 12:10:46 37° 97° (E) 12:14:49 437.525
PHONESAT 2.4 30 Jan 12:12:47 12:16:25 76° 9° (N) 12:20:04 2401.200-2431.200
50 SAT 30 Jan 12:14:25 12:16:58 16° 292° (WNW) 12:19:21 437.505
BEESAT 2 30 Jan 12:14:59 12:18:17 22° 248° (WSW) 12:21:28 435.950
AIST 2 30 Jan 12:16:25 12:20:36 54° 243° (WSW) 12:24:42 435.215
VELOX 1 30 Jan 12:22:53 12:25:38 16° 294° (WNW) 12:28:14 145.980
PCSat 30 Jan 12:24:43 12:28:55 23° 48° (NE) 12:33:12 145.827
Oscar 19 30 Jan 12:25:17 12:30:03 39° 71° (ENE) 12:34:53 437.125/150
CUBEBUG 1 30 Jan 12:26:27 12:30:25 31° 289° (WNW) 12:34:17 437.445
BEESAT 3 30 Jan 12:28:44 12:31:01 14° 250° (WSW) 12:33:08 437.485
TISAT 1 30 Jan 12:39:27 12:43:47 88° 108° (ESE) 12:48:03 437.305
VERMONT LUNAR 30 Jan 12:44:54 12:48:21 57° 201° (SSW) 12:51:49 437.305
ITAMSAT 1 30 Jan 12:45:16 12:49:02 22° 66° (ENE) 12:52:59 435.822/435.867
GONETS M04 30 Jan 13:14:23 13:22:59 66° 267° (W) 13:31:32
AO-7 30 Jan 13:29:05 13:33:17 16° 51° (NE) 13:37:57 29.400- 29.500
SWISSCUBE 30 Jan 13:38:35 13:43:18 57° 100° (E) 13:48:02 437.505
SPROUT 30 Jan 13:43:34 13:46:38 19° 292° (WNW) 13:49:34 437.525
Gurwin Techsat 1B 30 Jan 13:48:12 13:53:22 57° 73° (ENE) 13:58:36 435.225
PHONESAT 2.4 30 Jan 13:51:28 13:54:53 38° 206° (SSW) 13:58:18 2401.200-2431.200
RS-15 30 Jan 13:52:10 14:03:35 75° 56° (ENE) 14:15:32 29.354- 29.394
BEESAT 30 Jan 13:54:05 13:58:53 77° 101° (E) 14:03:39 436.000
KKS-1 30 Jan 13:55:29 13:57:50 14° 90° (E) 14:00:23 437.445
ITUPSAT 1 30 Jan 13:58:47 14:03:36 84° 101° (E) 14:08:25 437.325
Oscar 19 30 Jan 14:05:21 14:09:33 24° 267° (W) 14:13:39 437.125/150
PCSat 30 Jan 14:07:25 14:12:42 53° 247° (WSW) 14:17:57 145.827
ITAMSAT 1 30 Jan 14:23:20 14:28:17 45° 261° (W) 14:33:15 435.822/435.867
VERMONT LUNAR 30 Jan 14:24:12 14:26:04 14° 214° (SW) 14:27:50 437.305
HORYU 2 30 Jan 14:41:05 14:45:30 58° 74° (ENE) 14:49:56 437.375
DANDE 30 Jan 14:51:53 14:57:51 38° 69° (ENE) 15:02:25 436.750
CUSAT 1 30 Jan 15:13:49 15:19:49 72° 78° (ENE) 15:24:13 437.405
AO-7 30 Jan 15:16:32 15:24:48 71° 70° (ENE) 15:33:09 29.400- 29.500
SWISSCUBE 30 Jan 15:17:57 15:20:46 15° 295° (WNW) 15:23:23 437.505
STARS 30 Jan 15:20:54 15:25:23 85° 102° (ESE) 15:29:49 437.465
M-CUBED/EXP-1 PRIME 30 Jan 15:28:45 15:31:44 30° 103° (ESE) 15:34:51 437.505
Gurwin Techsat 1B 30 Jan 15:30:22 15:33:48 17° 270° (W) 15:37:00 435.225
KKS-1 30 Jan 15:30:29 15:34:50 49° 287° (WNW) 15:39:08 437.445
BEESAT 30 Jan 15:34:30 15:36:12 11° 297° (WNW) 15:37:37 436.000
JAS-2 30 Jan 15:35:30 15:40:23 35° 70° (ENE) 15:45:06 435.910
ITUPSAT 1 30 Jan 15:39:49 15:40:55 11° 298° (WNW) 15:41:43 437.325
AUBIESAT-1 30 Jan 16:00:30 16:03:51 78° 107° (ESE) 16:07:20 437.475
RS-15 30 Jan 16:05:47 16:15:14 29° 254° (WSW) 16:24:32 29.354- 29.394
O/OREOS (USA 219) 30 Jan 16:17:49 16:22:18 76° 293° (WNW) 16:26:50 437.305
HORYU 2 30 Jan 16:20:40 16:22:38 12° 271° (W) 16:24:18 437.375
DANDE 30 Jan 16:35:59 16:40:54 24° 276° (W) 16:44:44 436.750
Cubesat XI-IV 30 Jan 16:38:48 16:42:27 20° 65° (ENE) 16:46:18 437.490
CUTE-I 30 Jan 16:57:27 17:01:53 29° 68° (ENE) 17:06:27 437.470
CUSAT 1 30 Jan 17:00:12 17:01:32 11° 282° (WNW) 17:02:28 437.405
M-CUBED/EXP-1 PRIME 30 Jan 17:04:50 17:06:35 13° 296° (WNW) 17:08:14 437.505
AO-7 30 Jan 17:11:51 17:18:23 24° 268° (W) 17:24:36 29.400- 29.500
MOZHAYETS 4 30 Jan 17:19:27 17:24:03 84° 282° (WNW) 17:28:37
JAS-2 30 Jan 17:21:06 17:25:39 25° 265° (W) 17:29:54 435.910
CUBESAT XI-V 30 Jan 17:41:32 17:42:52 11° 88° (E) 17:44:30 437.345
SO-50 30 Jan 17:55:09 17:58:44 20° 44° (NE) 18:02:26 436.795
YUBILEINY 30 Jan 18:16:58 18:22:55 22° 82° (E) 18:29:17 435.215
Cubesat XI-IV 30 Jan 18:17:01 18:22:12 52° 260° (W) 18:27:25 437.490
STRAND 1 30 Jan 18:22:02 18:25:59 23° 93° (E) 18:30:05 437.568
JUGNU 30 Jan 18:36:10 18:38:04 12° 180° (S) 18:39:59 437.505
CUTE-I 30 Jan 18:37:03 18:41:53 34° 263° (W) 18:46:42 437.470
PRISM 30 Jan 18:40:46 18:44:55 72° 102° (ESE) 18:49:05 437.425
CANX-2 30 Jan 19:14:07 19:16:22 14° 67° (ENE) 19:18:46 2200.000
CUBESAT XI-V 30 Jan 19:16:11 19:20:52 67° 284° (WNW) 19:25:32 437.345
SRMSAT 30 Jan 19:19:38 19:21:20 11° 176° (S) 19:23:03 437.500
HO-68 30 Jan 19:22:50 19:29:09 36° 65° (ENE) 19:35:34 435.675
SO-50 30 Jan 19:34:52 19:39:43 58° 242° (WSW) 19:44:32 436.795
CUTE 1.7 + AOD 2 30 Jan 19:36:49 19:40:09 23° 70° (ENE) 19:43:36 437.475
CINEMA 3 30 Jan 19:38:20 19:39:50 12° 63° (ENE) 19:41:38 145.822/145.860
GOMX 1 30 Jan 19:54:45 19:59:29 41° 71° (ENE) 20:04:33 467.674
DOVE 4 30 Jan 19:59:47 20:04:17 33° 70° (ENE) 20:09:01 437.250
STRAND 1 30 Jan 20:00:34 20:05:22 40° 289° (WNW) 20:10:08 437.568
SEEDS 30 Jan 20:04:32 20:08:29 39° 73° (ENE) 20:12:30 437.485
BRITE-PL 30 Jan 20:07:07 20:12:09 76° 77° (ENE) 20:17:39 437.365/2234.400
YUBILEINY 30 Jan 20:10:18 20:18:58 72° 279° (W) 20:27:42 435.215
ISS 30 Jan 20:13:15 20:15:04 14° 130° (SE) 20:16:59 145.825
UKube-1 30 Jan 20:21:36 20:23:35 13° 65° (ENE) 20:25:46 .
COMPASS 1 30 Jan 20:28:31 20:32:41 63° 76° (ENE) 20:36:52 437.405
CUBEBUG 2 30 Jan 20:37:02 20:40:53 26° 69° (ENE) 20:44:52 437.445
ZACube-1 30 Jan 20:38:23 20:41:26 18° 67° (ENE) 20:44:39 437.345
DELFI C3 30 Jan 20:40:17 20:43:44 27° 71° (ENE) 20:47:13 145.870
DX 1 30 Jan 20:42:46 20:46:11 24° 69° (ENE) 20:49:43 434.975-435.025
CANX-2 30 Jan 20:47:48 20:51:58 48° 261° (W) 20:56:08 2200.000
FUNcube-1 30 Jan 20:49:12 20:52:46 23° 69° (ENE) 20:56:26 145.935
AAUSAT CUBESAT 2 30 Jan 20:53:32 20:57:45 75° 258° (WSW) 21:01:57 437.432
SRMSAT 30 Jan 21:08:09 21:09:37 11° 186° (S) 21:11:03 437.500
HO-68 30 Jan 21:10:04 21:16:47 42° 262° (W) 21:23:28 435.675
CINEMA 3 30 Jan 21:11:26 21:16:23 84° 260° (W) 21:21:28 145.822/145.860
CUTE 1.7 + AOD 2 30 Jan 21:12:16 21:16:00 28° 265° (W) 21:19:42 437.475
UWE-3 30 Jan 21:12:51 21:17:22 50° 74° (ENE) 21:21:57 435.000/436.395/437.385
AISAT 30 Jan 21:15:21 21:18:34 20° 68° (ENE) 21:21:55 437.250
Oscar 11 30 Jan 21:18:40 21:23:02 82° 257° (WSW) 21:27:24 145.826/435.025
50 SAT 30 Jan 21:25:07 21:28:13 21° 69° (ENE) 21:31:24 437.505
ESTCUBE 1 30 Jan 21:25:44 21:26:52 11° 64° (ENE) 21:28:16 437.505/2401.250
GOMX 1 30 Jan 21:33:43 21:37:50 23° 269° (W) 21:41:58 467.674
DOVE 4 30 Jan 21:37:42 21:42:04 28° 267° (W) 21:46:31 437.250
VELOX 1 30 Jan 21:41:45 21:45:49 37° 71° (ENE) 21:49:57 145.980
SEEDS 30 Jan 21:41:50 21:44:33 16° 269° (W) 21:47:06 437.485
CUBEBUG 1 30 Jan 21:46:30 21:49:13 17° 67° (ENE) 21:52:06 437.445
ISS 30 Jan 21:48:03 21:51:16 53° 325° (NW) 21:54:30 145.825
BRITE-PL 30 Jan 21:49:20 21:51:31 12° 275° (W) 21:53:23 437.365/2234.400
UKube-1 30 Jan 21:55:06 21:59:21 54° 260° (W) 22:03:36 .
HUMSAT D 30 Jan 22:02:48 22:07:09 80° 78° (ENE) 22:11:33 437.325/437.525
ZACube-1 30 Jan 22:13:07 22:17:31 43° 262° (W) 22:21:56 437.345
CUBEBUG 2 30 Jan 22:13:13 22:17:29 32° 265° (W) 22:21:45 437.445
AIST 1 30 Jan 22:13:40 22:17:54 50° 79° (E) 22:22:11
YUBILEINY 30 Jan 22:13:46 22:17:48 13° 303° (WNW) 22:21:12 435.215
DELFI C3 30 Jan 22:15:48 22:19:00 21° 266° (W) 22:22:05 145.870
POPSAT HIP 1 30 Jan 22:18:28 22:20:53 15° 91° (E) 22:23:29 437.405
DX 1 30 Jan 22:18:32 22:22:21 29° 264° (W) 22:26:07 434.975-435.025
DUCHIFAT 1 30 Jan 22:20:01 22:22:33 16° 91° (E) 22:25:13 145.980
UNISAT 6 30 Jan 22:21:22 22:25:10 28° 95° (E) 22:28:58 437.425
FUNcube-1 30 Jan 22:24:47 22:28:58 33° 264° (W) 22:33:07 145.935
AISAT 30 Jan 22:50:54 22:54:59 35° 263° (W) 22:59:06 437.250
UWE-3 30 Jan 22:51:22 22:54:16 16° 270° (W) 22:56:58 435.000/436.395/437.385
NANOSAT C BR1 30 Jan 22:53:51 22:57:52 38° 98° (E) 23:01:53 145.865
ANTELSAT 30 Jan 22:57:04 23:01:30 75° 102° (ESE) 23:05:49 437.575/2403.000
ESTCUBE 1 30 Jan 22:58:46 23:03:14 71° 258° (WSW) 23:07:44 437.505/2401.250
50 SAT 30 Jan 22:59:34 23:03:12 29° 264° (W) 23:06:48 437.505
SPROUT 30 Jan 23:00:11 23:03:41 25° 70° (ENE) 23:07:17 437.525
TIGRISAT 30 Jan 23:03:46 23:08:14 87° 99° (E) 23:12:33 435.000
QB50P2 30 Jan 23:09:01 23:13:17 60° 100° (E) 23:17:31 145.880/145.840
QB50P1 30 Jan 23:17:41 23:22:01 75° 101° (E) 23:26:18 145.935-145.965
VELOX 1 30 Jan 23:19:25 23:22:35 18° 268° (W) 23:25:38 145.980
BUGSAT 1 30 Jan 23:20:19 23:24:35 60° 100° (E) 23:28:48 437.445
CUBEBUG 1 30 Jan 23:21:11 23:25:19 41° 262° (W) 23:29:28 437.445
ISS 30 Jan 23:26:42 23:28:22 13° 344° (NNW) 23:29:59 145.825
TISAT 1 30 Jan 23:30:34 23:34:42 54° 74° (ENE) 23:38:53 437.305
POLYITAN 1 30 Jan 23:33:43 23:38:02 70° 285° (WNW) 23:42:17 437.675
POPSAT HIP 1 30 Jan 23:52:58 23:57:04 42° 287° (WNW) 00:01:07 437.405
AIST 1 30 Jan 23:53:18 23:55:11 12° 273° (W) 23:56:50
DUCHIFAT 1 30 Jan 23:54:35 23:58:40 41° 287° (WNW) 00:02:40 145.980
UNISAT 6 30 Jan 23:58:18 00:01:53 24° 291° (WNW) 00:05:18 437.425
GONETS M04 31 Jan 00:18:26 00:25:35 31° 85° (E) 00:32:57
NANOSAT C BR1 31 Jan 00:30:33 00:33:30 18° 293° (WNW) 00:36:17 145.865
SPROUT 31 Jan 00:36:04 00:39:44 26° 265° (W) 00:43:22 437.525
ANTELSAT 31 Jan 00:37:23 00:37:44 10° 297° (WNW) 00:37:49 437.575/2403.000
Oscar 19 31 Jan 00:39:34 00:42:15 15° 89° (E) 00:45:11 437.125/150
SWISSCUBE 31 Jan 00:43:59 00:48:37 56° 74° (ENE) 00:53:19 437.505
BEESAT 3 31 Jan 00:44:33 00:46:10 12° 109° (ESE) 00:47:59 437.485
QB50P2 31 Jan 00:46:59 00:48:46 12° 295° (WNW) 00:50:19 145.880/145.840
O/OREOS (USA 219) 31 Jan 00:50:56 00:53:51 17° 55° (NE) 00:56:55 437.305
KKS-1 31 Jan 00:53:41 00:55:25 12° 64° (ENE) 00:57:23 437.445
BUGSAT 1 31 Jan 00:57:55 00:59:38 12° 295° (WNW) 01:01:07 437.445
BEESAT 31 Jan 00:59:19 01:04:04 76° 74° (ENE) 01:08:49 436.000
ITUPSAT 1 31 Jan 01:04:21 01:09:07 84° 74° (ENE) 01:13:54 437.325
TISAT 1 31 Jan 01:09:22 01:10:57 12° 271° (W) 01:12:18 437.305
Gurwin Techsat 1B 31 Jan 02:06:17 02:10:34 25° 94° (E) 02:14:57 435.225
BEESAT 2 31 Jan 02:07:32 02:11:39 86° 301° (WNW) 02:15:51 435.950
AIST 2 31 Jan 02:13:18 02:17:18 43° 116° (ESE) 02:21:23 435.215
GONETS M04 31 Jan 02:13:29 02:22:03 55° 283° (WNW) 02:30:33
STARS 31 Jan 02:16:34 02:20:57 64° 75° (ENE) 02:25:24 437.465
M-CUBED/EXP-1 PRIME 31 Jan 02:16:44 02:20:29 39° 69° (ENE) 02:23:58 437.505
Oscar 19 31 Jan 02:17:02 02:22:08 60° 286° (WNW) 02:27:09 437.125/150
BEESAT 3 31 Jan 02:19:51 02:23:52 55° 304° (NW) 02:27:58 437.485
DANDE 31 Jan 02:22:06 02:24:03 11° 79° (ENE) 02:26:46 436.750
SWISSCUBE 31 Jan 02:24:25 02:26:57 14° 270° (W) 02:29:14 437.505
KKS-1 31 Jan 02:27:10 02:31:36 63° 259° (W) 02:36:05 437.445
O/OREOS (USA 219) 31 Jan 02:29:10 02:33:37 49° 253° (WSW) 02:38:03 437.305
HORYU 2 31 Jan 02:36:01 02:37:40 12° 90° (E) 02:39:34 437.375
ITAMSAT 1 31 Jan 02:37:08 02:42:22 72° 101° (ESE) 02:47:36 435.822/435.867
CUSAT 1 31 Jan 02:37:31 02:42:42 19° 83° (E) 02:48:23 437.405
ISS 31 Jan 02:41:07 02:43:33 19° 23° (NNE) 02:46:00 145.825
AUBIESAT-1 31 Jan 02:48:05 02:52:05 89° 73° (ENE) 02:55:47 437.475
PCSat 31 Jan 03:05:38 03:09:47 24° 108° (ESE) 03:14:06 145.827
AO-7 31 Jan 03:20:44 03:27:01 24° 92° (E) 03:33:35 29.400- 29.500
Gurwin Techsat 1B 31 Jan 03:45:46 03:50:41 38° 290° (WNW) 03:55:32 435.225
BEESAT 2 31 Jan 03:49:28 03:50:36 11° 320° (NW) 03:51:34 435.950
AIST 2 31 Jan 03:52:55 03:56:09 20° 314° (NW) 03:59:19 435.215
M-CUBED/EXP-1 PRIME 31 Jan 03:53:27 03:55:37 14° 262° (W) 03:57:31 437.505
STARS 31 Jan 03:56:41 03:57:58 11° 272° (W) 03:58:56 437.465
DANDE 31 Jan 03:58:07 04:06:10 62° 94° (E) 04:14:41 436.750
HORYU 2 31 Jan 04:10:26 04:14:47 56° 286° (WNW) 04:19:07 437.375
ISS 31 Jan 04:17:03 04:20:20 67° 221° (SW) 04:23:35 145.825
ITAMSAT 1 31 Jan 04:18:32 04:21:21 14° 297° (WNW) 04:23:54 435.822/435.867
